Home   Weather   Cuttack   Past weeks

Flag for India Past Weather in Cuttack, Odisha, India — Yesterday and Last 2 Weeks

Now
86 °F

Haze.


Feels Like: 85 °F
Forecast: 58 / 88 °F
Wind: 2 mph from Northeast

Location: Bhubaneswar Airport

Current Time: Jan 18, 2017 at 4:01:29 pm

Latest Report: Jan 18, 2017 at 3:00 pm


Visibility: 2 mi

Pressure: 29.98 "Hg

Humidity: 38%

Dew Point: 57 °F

Location of CuttackLocation

Past Weather in Cuttack — Graph

°F

Cuttack Temperature Yesterday

Maximum temperature yesterday: 86 °F (at 1:00 pm)
Minimum temperature yesterday: 57 °F (at 5:30 am)
Average temperature yesterday: 70 °F

High & Low Weather Summary for the Past Weeks

 TemperatureHumidityPressure
High90 °F (Jan 8, 2:30 pm)100% (Jan 4, 2:30 am)30.12 "Hg (Jan 4, 2:30 am)
Low54 °F (Jan 16, 5:30 am)27% (Jan 8, 2:30 pm)29.77 "Hg (Jan 8, 3:30 pm)
Average71 °F65%29.94 "Hg
* Reported Jan 3 2:30 pm — Jan 18 2:30 pm, Cuttack, Weather by CustomWeather, © 2017

Note: Actual official high and low records may vary slightly from our data, if they occured in-between our weather recording intervals... More about our weather records

Advertising

Cuttack Weather History for the Previous 24 Hours

Scroll right to see more
 ConditionsComfort  
Time TempWeatherWind HumidityBarometerVisibility
2:30 pm
Wed, Jan 18
86 °FHaze.2 mph38%30.01 "Hg1 mi
2:00 pm86 °FHaze.3 mph40%30.01 "Hg2 mi
1:30 pm86 °FHaze.3 mph40%30.01 "Hg2 mi
1:00 pm86 °FHaze.6 mph40%30.04 "Hg2 mi
12:30 pm84 °FHaze.3 mph43%30.07 "Hg1 mi
12:00 pm84 °FHaze.5 mph45%30.07 "Hg1 mi
11:30 am82 °FHaze.5 mph45%30.09 "Hg1 mi
11:00 am79 °FHaze.3 mph51%30.09 "Hg1 mi
10:30 am75 °FHaze.2 mph57%30.12 "Hg1 mi
10:00 am73 °FHaze.2 mph61%30.12 "Hg1 mi
9:30 am72 °FHaze.2 mph65%30.12 "Hg1 mi
9:00 am70 °FHaze.2 mph69%30.09 "Hg1 mi
8:30 am66 °FFog.1 mph83%30.09 "Hg1 mi
8:00 am66 °FFog.2 mph83%30.09 "Hg1 mi
7:30 am64 °FFog.No wind88%30.07 "Hg1 mi
7:00 am63 °FFog.No wind94%30.04 "Hg1 mi
6:00 am63 °FFog.No wind94%30.04 "Hg1 mi
5:30 am63 °FHaze.No wind94%29.95 "Hg1 mi
5:00 am63 °FHaze.No wind94%30.01 "Hg1 mi
4:30 am63 °FHaze.No wind94%30.01 "Hg1 mi
4:00 am63 °FHaze.No wind88%30.01 "Hg1 mi
3:00 am63 °FHaze.No wind88%30.01 "Hg1 mi
2:30 am63 °FHaze.No wind88%30.01 "Hg1 mi
2:00 am63 °FHaze.No wind88%30.01 "Hg1 mi
1:00 am64 °FHaze.No wind83%30.01 "Hg1 mi
11:30 pm
Tue, Jan 17
64 °FHaze.No wind83%30.04 "Hg1 mi
11:00 pm64 °FHaze.No wind83%30.04 "Hg1 mi
10:30 pm66 °FHaze.No wind83%30.04 "Hg2 mi
10:00 pm66 °FHaze.No wind83%30.04 "Hg2 mi
9:30 pm68 °FHaze.No wind78%30.04 "Hg2 mi
9:00 pm68 °FHaze.2 mph78%30.04 "Hg2 mi
8:30 pm70 °FHaze.2 mph73%30.01 "Hg2 mi
8:00 pm72 °FHaze.2 mph73%30.01 "Hg2 mi
7:30 pm72 °FHaze.2 mph73%30.01 "Hg2 mi
7:00 pm73 °FHaze.7 mph74%29.98 "Hg2 mi
6:00 pm77 °FHaze.8 mph61%29.95 "Hg2 mi
5:30 pm79 °FHaze.No wind54%29.95 "Hg2 mi
5:00 pm81 °FHaze.No wind48%29.92 "Hg2 mi
4:30 pm82 °FHaze.No wind42%29.92 "Hg2 mi
4:00 pm84 °FHaze.2 mph37%29.92 "Hg2 mi
Weather by CustomWeather, © 2017

See weather overviewHow to use our weather pages